Location: Milton
(43.5183°N, 79.8775°W)
Time: 13:04:30
(UTC+00:00)

ESTCUBE 1 - Pass Details

Date: 07 April 2023
Orbit: 640 x 654 km, 97.9° (Epoch: 29 May)

Event Time Altitude Azimuth Distance (km) Brightness Sun altitude
Exits shadow 03:58:24 19° 317° (NW) 1,563 ? -36.3°
Drops below altitude 10° 03:59:55 10° 329° (NNW) 2,073 ? -36.5°
Sets 04:02:19 0° 338° (NNW) 2,988 ? -36.6°
